Cumberland, WV

7:42 PM EST on February 19, 2018 (GMT -0500)
Greater Cumberland Regional

Weather History for KCBE - November, 2012

Change the Weather History Date:

Friday, November 2, 2012

  Actual Average (KMRB) Record (KMRB)
Temperature  
Mean Temperature 42 °F -  
Max Temperature 44 °F 64 °F 85 °F (1971)
Min Temperature 41 °F 41 °F 26 °F (1962)
Degree Days  
Heating Degree Days 22    
Moisture  
Dew Point 32 °F    
Average Humidity 65    
Maximum Humidity 70    
Minimum Humidity 57    
Precipitation  
Precipitation 0.00 in - - ()
Sea Level Pressure  
Sea Level Pressure 29.91 in    
Wind  
Wind Speed 9 mph (WNW)    
Max Wind Speed 18 mph    
Max Gust Speed 34 mph    
Visibility 10 miles    
Events      
Averages and records for this station are not official NWS values.
T = Trace of Precipitation, MM = Missing Value Source: NWS Daily Summary

Daily Weather History Graph

Daily Weather History Graph

Search for Another Location

Airport or City:

Trip Planner

Search our weather history database for the weather conditions in past years. The results will help you decide how hot, cold, wet, or windy it might be!

Date:

Astronomy

Nov. 02, 2012 Rise Set
Actual Time 7:45 AM EDT 6:11 PM EDT
Civil Twilight 7:17 AM EDT 6:39 PM EDT
Nautical Twilight 6:45 AM EDT 7:11 PM EDT
Astronomical Twilight 6:13 AM EDT 7:42 PM EDT
Moon 8:57 PM EDT (11/2) 11:03 AM EDT (11/2)
Length of Visible Light 11h 22m
Length of Day
10h 26m
Waning Gibbous, 87% of the Moon is Illuminated
Nov 2
Waning Gibbous
Nov 6
Last Quarter
Nov 13
New
Nov 20
First Quarter
Nov 28
Full

Hourly Weather History & Observations

Time (EDT) Temp. Windchill Dew Point Humidity Pressure Visibility Wind Dir Wind Speed Gust Speed Precip Events Conditions
10:09 AM - - - N/A% 29.84 in - West 5.8 mph - N/A   Unknown
10:31 AM 44.6 °F 40.2 °F 33.8 °F 66% 29.84 in 10.0 mi West 8.1 mph - N/A   Overcast
10:52 AM 42.8 °F 38.0 °F 32.0 °F 66% 29.85 in 10.0 mi West 8.1 mph - N/A   Overcast
11:13 AM 42.8 °F 38.6 °F 32.0 °F 66% 29.85 in 10.0 mi West 6.9 mph - N/A   Overcast
11:34 AM 44.6 °F 40.7 °F 32.0 °F 61% 29.85 in 10.0 mi WNW 6.9 mph - N/A   Mostly Cloudy
11:56 AM 44.6 °F 43.1 °F 32.0 °F 61% 29.85 in 10.0 mi WSW 3.5 mph - N/A   Mostly Cloudy
12:17 PM 44.6 °F 39.7 °F 32.0 °F 61% 29.85 in 10.0 mi WNW 9.2 mph 16.1 mph N/A   Mostly Cloudy
12:38 PM 44.6 °F 38.1 °F 32.0 °F 61% 29.85 in 10.0 mi West 13.8 mph 17.3 mph N/A   Overcast
12:59 PM 44.6 °F 39.7 °F 32.0 °F 61% 29.85 in 10.0 mi WNW 9.2 mph - N/A   Overcast
1:20 PM 44.6 °F 39.7 °F 32.0 °F 61% 29.85 in 10.0 mi West 9.2 mph - N/A   Overcast
1:42 PM 44.6 °F 40.2 °F 32.0 °F 61% 29.85 in 10.0 mi NW 8.1 mph 18.4 mph N/A   Overcast
2:03 PM 44.6 °F 38.4 °F 32.0 °F 61% 29.86 in 10.0 mi West 12.7 mph 19.6 mph N/A   Overcast
2:24 PM 44.6 °F 40.7 °F 32.0 °F 61% 29.86 in 10.0 mi West 6.9 mph 17.3 mph N/A   Overcast
2:45 PM 44.6 °F 38.1 °F 30.2 °F 57% 29.86 in 10.0 mi West 13.8 mph 21.9 mph N/A   Overcast
3:07 PM 44.6 °F 38.4 °F 32.0 °F 61% 29.87 in 10.0 mi WSW 12.7 mph - N/A   Overcast
3:28 PM 44.6 °F 37.4 °F 32.0 °F 61% 29.87 in 10.0 mi West 16.1 mph 21.9 mph N/A   Overcast
3:49 PM 44.6 °F 40.2 °F 32.0 °F 61% 29.88 in 10.0 mi WNW 8.1 mph 27.6 mph N/A   Overcast
4:10 PM 44.6 °F 38.1 °F 32.0 °F 61% 29.89 in 10.0 mi West 13.8 mph 20.7 mph N/A   Overcast
4:32 PM 42.8 °F 36.6 °F 32.0 °F 66% 29.90 in 10.0 mi West 11.5 mph 20.7 mph N/A   Overcast
4:53 PM 42.8 °F 37.0 °F 32.0 °F 66% 29.91 in 10.0 mi WNW 10.4 mph 16.1 mph N/A   Overcast
5:14 PM 42.8 °F 35.8 °F 32.0 °F 66% 29.91 in 10.0 mi WNW 13.8 mph 18.4 mph N/A   Overcast
5:35 PM 42.8 °F 35.1 °F 32.0 °F 66% 29.92 in 10.0 mi West 16.1 mph - N/A   Overcast
5:57 PM 42.8 °F 38.6 °F 32.0 °F 66% 29.93 in 10.0 mi NW 6.9 mph 17.3 mph N/A   Overcast
7:22 PM 42.8 °F 34.5 °F 32.0 °F 66% 29.96 in 10.0 mi West 18.4 mph 34.5 mph N/A   Overcast
7:43 PM 42.8 °F 40.1 °F 32.0 °F 66% 29.97 in 10.0 mi NNW 4.6 mph 17.3 mph N/A   Overcast
8:04 PM 41.0 °F 36.4 °F 32.0 °F 70% 29.97 in 10.0 mi West 6.9 mph 10.4 mph N/A   Overcast
8:25 PM 41.0 °F 37.1 °F 32.0 °F 70% 29.97 in 10.0 mi West 5.8 mph - N/A   Overcast
8:46 PM 41.0 °F 35.8 °F 32.0 °F 70% 29.98 in 10.0 mi North 8.1 mph - N/A   Overcast
9:08 PM 41.0 °F 34.7 °F 32.0 °F 70% 29.98 in 10.0 mi WNW 10.4 mph 23.0 mph N/A   Overcast
9:29 PM 41.0 °F 33.5 °F 32.0 °F 70% 29.99 in 10.0 mi NW 13.8 mph 17.3 mph N/A   Overcast
9:50 PM 41.0 °F 37.1 °F 32.0 °F 70% 30.00 in 10.0 mi WNW 5.8 mph 21.9 mph N/A   Mostly Cloudy
10:12 PM 41.0 °F 33.5 °F 32.0 °F 70% 30.00 in 10.0 mi WNW 13.8 mph 19.6 mph N/A   Overcast
10:33 PM 41.0 °F 34.3 °F 32.0 °F 70% 30.01 in 10.0 mi NW 11.5 mph 17.3 mph N/A   Overcast
10:54 PM 41.0 °F 34.7 °F 30.2 °F 65% 30.00 in 10.0 mi WNW 10.4 mph 18.4 mph N/A   Overcast
11:15 PM 41.0 °F 34.3 °F 30.2 °F 65% 30.00 in 10.0 mi WNW 11.5 mph 19.6 mph N/A   Overcast
11:37 PM 41.0 °F 39.0 °F 30.2 °F 65% 30.00 in 10.0 mi WNW 3.5 mph - N/A   Overcast
11:58 PM 41.0 °F 33.9 °F 30.2 °F 65% 30.00 in 10.0 mi WNW 12.7 mph 18.4 mph N/A   Overcast